Weather History for KOMH - April, 2014

Change the Weather History Date:

Friday, April 4, 2014

  Actual Average Record
Temperature  
Mean Temperature 56 °F -  
Max Temperature 62 °F 63 °F 89 °F (1963)
Min Temperature 50 °F 41 °F 25 °F (1954)
Degree Days  
Heating Degree Days 9    
Growing Degree Days 6 (Base 50)    
Moisture  
Dew Point 46 °F    
Average Humidity 75    
Maximum Humidity 88    
Minimum Humidity 54    
Precipitation  
Precipitation 0.00 in - - ()
Sea Level Pressure  
Sea Level Pressure 29.83 in    
Wind  
Wind Speed 3 mph (North)    
Max Wind Speed 9 mph    
Max Gust Speed -    
Visibility 9 miles    
Events Rain    
Averages and records for this station are not official NWS values.
T = Trace of Precipitation, MM = Missing Value Source: NWS Daily Summary

Daily Weather History Graph

Daily Weather History Graph

Search for Another Location

Airport or City:

Trip Planner

Search our weather history database for the weather conditions in past years. The results will help you decide how hot, cold, wet, or windy it might be!

Date:

Astronomy

Apr. 04, 2014 Rise Set
Actual Time 6:52 AM EDT 7:38 PM EDT
Civil Twilight 6:25 AM EDT 8:04 PM EDT
Nautical Twilight 5:54 AM EDT 8:36 PM EDT
Astronomical Twilight 5:21 AM EDT 9:09 PM EDT
Moon 10:11 AM EDT (4/4) No Moon Set
Length of Visible Light 13h 38m
Length of Day
12h 45m
Waxing Crescent, 25% of the Moon is Illuminated
Apr 4
Waxing Crescent
Apr 7
First Quarter
Apr 15
Full
Apr 22
Last Quarter
Apr 29
New

Hourly Weather History & Observations

Time (EDT) Temp. Dew Point Humidity Pressure Visibility Wind Dir Wind Speed Gust Speed Precip Events Conditions
12:15 AM 55.4 °F 44.6 °F 67% 29.97 in 10.0 mi West 3.5 mph - N/A   Overcast
12:35 AM 55.4 °F 42.8 °F 63% 29.95 in 10.0 mi Calm Calm - N/A   Overcast
12:55 AM 55.4 °F 41.0 °F 58% 29.93 in 10.0 mi ENE 3.5 mph - N/A   Mostly Cloudy
1:15 AM 55.4 °F 39.2 °F 54% 29.93 in 10.0 mi Calm Calm - N/A   Scattered Clouds
1:35 AM 53.6 °F 39.2 °F 58% 29.95 in 10.0 mi Calm Calm - N/A   Scattered Clouds
1:55 AM 51.8 °F 41.0 °F 67% 29.93 in 10.0 mi ENE 3.5 mph - N/A   Mostly Cloudy
2:15 AM 53.6 °F 41.0 °F 62% 29.92 in 10.0 mi Calm Calm - N/A   Overcast
2:35 AM 53.6 °F 39.2 °F 58% 29.91 in 10.0 mi Calm Calm - N/A   Overcast
2:55 AM 53.6 °F 39.2 °F 58% 29.89 in 10.0 mi ENE 4.6 mph - N/A   Scattered Clouds
3:15 AM 51.8 °F 39.2 °F 62% 29.88 in 10.0 mi NE 3.5 mph - N/A   Scattered Clouds
3:35 AM 50.0 °F 41.0 °F 71% 29.88 in 10.0 mi Calm Calm - N/A   Mostly Cloudy
3:55 AM 50.0 °F 41.0 °F 71% 29.88 in 10.0 mi Calm Calm - N/A   Clear
4:15 AM 50.0 °F 42.8 °F 76% 29.89 in 10.0 mi Calm Calm - N/A   Clear
4:35 AM 50.0 °F 41.0 °F 71% 29.88 in 10.0 mi NNE 3.5 mph - N/A   Scattered Clouds
4:55 AM 50.0 °F 41.0 °F 71% 29.88 in 10.0 mi Calm Calm - N/A   Clear
5:15 AM 50.0 °F 42.8 °F 76% 29.89 in 10.0 mi NNW 3.5 mph - N/A   Clear
5:35 AM 50.0 °F 41.0 °F 71% 29.89 in 10.0 mi North 5.8 mph - N/A   Clear
5:55 AM 50.0 °F 41.0 °F 71% 29.91 in 10.0 mi North 4.6 mph - N/A   Clear
6:15 AM 50.0 °F 41.0 °F 71% 29.91 in 10.0 mi North 3.5 mph - N/A   Scattered Clouds
6:35 AM 50.0 °F 42.8 °F 76% 29.91 in 10.0 mi North 3.5 mph - N/A   Overcast
6:55 AM 50.0 °F 42.8 °F 76% 29.91 in 10.0 mi North 5.8 mph - N/A   Overcast
7:15 AM 50.0 °F 44.6 °F 82% 29.91 in 10.0 mi North 5.8 mph - N/A   Overcast
7:35 AM 50.0 °F 44.6 °F 82% 29.92 in 10.0 mi North 4.6 mph - N/A   Overcast
7:55 AM 50.0 °F 44.6 °F 82% 29.92 in 10.0 mi North 5.8 mph - N/A   Overcast
8:15 AM 50.0 °F 46.4 °F 87% 29.93 in 7.0 mi North 3.5 mph - N/A   Overcast
8:35 AM 50.0 °F 46.4 °F 87% 29.93 in 7.0 mi North 3.5 mph - N/A   Overcast
8:55 AM 50.0 °F 46.4 °F 87% 29.93 in 7.0 mi North 4.6 mph - N/A   Overcast
9:15 AM 50.0 °F 46.4 °F 87% 29.92 in 7.0 mi NNE 3.5 mph - N/A   Overcast
9:35 AM 51.8 °F 46.4 °F 82% 29.92 in 7.0 mi North 6.9 mph - N/A   Overcast
9:55 AM 50.0 °F 46.4 °F 87% 29.91 in 7.0 mi North 4.6 mph - N/A   Overcast
10:15 AM 51.8 °F 46.4 °F 82% 29.91 in 7.0 mi NNW 5.8 mph - N/A   Overcast
10:35 AM 51.8 °F 46.4 °F 82% 29.91 in 7.0 mi NNE 4.6 mph - N/A   Overcast
10:55 AM 51.8 °F 46.4 °F 82% 29.91 in 7.0 mi North 4.6 mph - N/A   Overcast
11:15 AM 51.8 °F 46.4 °F 82% 29.91 in 7.0 mi North 4.6 mph - N/A   Overcast
11:35 AM 51.8 °F 46.4 °F 82% 29.89 in 7.0 mi NNW 4.6 mph - N/A   Overcast
11:55 AM 53.6 °F 46.4 °F 77% 29.88 in 7.0 mi ENE 5.8 mph - N/A   Overcast
12:15 PM 53.6 °F 48.2 °F 82% 29.88 in 7.0 mi NE 3.5 mph - N/A   Overcast
12:35 PM 53.6 °F 48.2 °F 82% 29.87 in 7.0 mi East 3.5 mph - N/A   Overcast
12:55 PM 53.6 °F 48.2 °F 82% 29.87 in 7.0 mi East 3.5 mph - N/A   Overcast
1:15 PM 55.4 °F 48.2 °F 77% 29.85 in 7.0 mi ENE 3.5 mph - N/A   Overcast
1:35 PM 55.4 °F 48.2 °F 77% 29.83 in 10.0 mi NE 4.6 mph - N/A   Overcast
2:15 PM 55.4 °F 48.2 °F 77% 29.82 in 10.0 mi Calm Calm - N/A   Overcast
2:35 PM 57.2 °F 50.0 °F 77% 29.81 in 10.0 mi South 3.5 mph - N/A   Overcast
2:55 PM 57.2 °F 50.0 °F 77% 29.81 in 10.0 mi West 4.6 mph - N/A   Overcast
3:15 PM 57.2 °F 50.0 °F 77% 29.79 in 10.0 mi North 3.5 mph - N/A   Mostly Cloudy
3:35 PM 59.0 °F 50.0 °F 72% 29.77 in 10.0 mi NE 3.5 mph - N/A   Scattered Clouds
3:55 PM 60.8 °F 50.0 °F 68% 29.75 in 10.0 mi Calm Calm - N/A   Clear
4:15 PM 62.6 °F 50.0 °F 63% 29.73 in 10.0 mi Calm Calm - N/A   Clear
4:55 PM 62.6 °F 51.8 °F 68% 29.72 in 10.0 mi NNW 3.5 mph - N/A   Scattered Clouds
5:15 PM 62.6 °F 51.8 °F 68% 29.72 in 10.0 mi NW 6.9 mph - N/A   Mostly Cloudy
5:35 PM 60.8 °F 50.0 °F 68% 29.72 in 10.0 mi NNW 9.2 mph - N/A   Mostly Cloudy
5:55 PM 60.8 °F 50.0 °F 68% 29.71 in 10.0 mi NW 4.6 mph - N/A   Scattered Clouds
6:15 PM 60.8 °F 50.0 °F 68% 29.71 in 10.0 mi Calm Calm - N/A   Clear
6:35 PM 60.8 °F 50.0 °F 68% 29.71 in 10.0 mi NNW 4.6 mph - N/A   Clear
6:55 PM 60.8 °F 50.0 °F 68% 29.71 in 10.0 mi NNW 3.5 mph - N/A   Clear
7:15 PM 59.0 °F 50.0 °F 72% 29.71 in 10.0 mi Calm Calm - N/A   Clear
7:35 PM 59.0 °F 50.0 °F 72% 29.71 in 10.0 mi Calm Calm - N/A   Mostly Cloudy
7:55 PM 57.2 °F 50.0 °F 77% 29.71 in 10.0 mi Calm Calm - N/A   Scattered Clouds
8:15 PM 55.4 °F 50.0 °F 82% 29.70 in 10.0 mi Calm Calm - N/A   Clear
8:35 PM 53.6 °F 50.0 °F 88% 29.71 in 10.0 mi Calm Calm - N/A   Clear
8:55 PM 53.6 °F 48.2 °F 82% 29.71 in 10.0 mi Calm Calm - N/A   Clear
9:15 PM 51.8 °F 46.4 °F 82% 29.71 in 10.0 mi Calm Calm - N/A   Clear
9:35 PM 51.8 °F 48.2 °F 88% 29.72 in 10.0 mi Calm Calm - N/A   Scattered Clouds
9:55 PM 51.8 °F 48.2 °F 88% 29.73 in 10.0 mi Calm Calm - N/A   Scattered Clouds
10:15 PM 51.8 °F 46.4 °F 82% 29.73 in 10.0 mi Calm Calm - N/A   Mostly Cloudy
10:35 PM 51.8 °F 48.2 °F 88% 29.73 in 10.0 mi NNW 4.6 mph - N/A   Overcast
10:55 PM 57.2 °F 50.0 °F 77% 29.76 in 10.0 mi WNW 8.1 mph - N/A Rain Light Rain
11:15 PM 55.4 °F 50.0 °F 82% 29.75 in 10.0 mi North 5.8 mph - N/A Rain Rain
11:35 PM 55.4 °F 50.0 °F 82% 29.73 in 10.0 mi NE 3.5 mph - N/A Rain Light Rain
11:55 PM 55.4 °F 51.8 °F 88% 29.73 in 10.0 mi SE 3.5 mph - N/A   Overcast